Radiation Dose at Monitoring Post of Fukushima Daini Nuclear Power Station
Date,Time,MP-1(microSv/h),MP-2(microSv/h),MP-3(microSv/h),MP-4(microSv/h),MP-5(microSv/h),MP-6(microSv/h),MP-7(microSv/h),Wind Direction,Wind Velocity(m/s),Rain
2022/10/20,00:00,0.149,0.135,0.217,0.209,0.212,0.119,0.077,west-northwest,4.3,No
2022/10/20,00:10,0.150,0.134,0.217,0.209,0.213,0.118,0.076,west-northwest,3.8,No
2022/10/20,00:20,0.149,0.134,0.216,0.210,0.211,0.118,0.076,west-northwest,4.2,No
2022/10/20,00:30,0.149,0.135,0.217,0.209,0.212,0.118,0.076,west-northwest,2.5,No
2022/10/20,00:40,0.149,0.134,0.217,0.209,0.212,0.119,0.076,west-northwest,2.1,No
2022/10/20,00:50,0.150,0.135,0.217,0.210,0.212,0.119,0.076,northwest,1.5,No
2022/10/20,01:00,0.149,0.135,0.216,0.209,0.212,0.119,0.076,northwest,1.1,No
2022/10/20,01:10,0.149,0.135,0.216,0.209,0.212,0.119,0.077,west-northwest,0.9,No
2022/10/20,01:20,0.149,0.134,0.217,0.210,0.212,0.119,0.076,northwest,0.7,No
2022/10/20,01:30,0.150,0.136,0.217,0.209,0.211,0.119,0.076,northwest,1.8,No
2022/10/20,01:40,0.150,0.135,0.217,0.210,0.213,0.119,0.077,northwest,2.4,No
2022/10/20,01:50,0.149,0.135,0.217,0.209,0.212,0.118,0.076,northwest,1.7,No
2022/10/20,02:00,0.150,0.135,0.216,0.208,0.212,0.119,0.076,west,1.3,No
2022/10/20,02:10,0.149,0.136,0.216,0.208,0.212,0.119,0.077,west-southwest,1.4,No
2022/10/20,02:20,0.149,0.135,0.218,0.209,0.211,0.119,0.076,west,2.5,No
2022/10/20,02:30,0.149,0.136,0.217,0.209,0.211,0.119,0.076,west-northwest,2.9,No
2022/10/20,02:40,0.149,0.135,0.217,0.208,0.212,0.119,0.076,west-northwest,3.8,No
2022/10/20,02:50,0.149,0.134,0.217,0.210,0.212,0.118,0.076,west-northwest,4.0,No
2022/10/20,03:00,0.149,0.135,0.217,0.209,0.210,0.120,0.077,west-northwest,3.3,No
2022/10/20,03:10,0.150,0.136,0.216,0.210,0.213,0.119,0.076,west-northwest,3.5,No
2022/10/20,03:20,0.150,0.135,0.217,0.210,0.212,0.118,0.077,west-northwest,4.9,No
2022/10/20,03:30,0.149,0.135,0.217,0.209,0.211,0.119,0.077,west-northwest,3.9,No
2022/10/20,03:40,0.149,0.136,0.217,0.209,0.211,0.119,0.076,northwest,3.0,No
2022/10/20,03:50,0.150,0.135,0.217,0.208,0.212,0.120,0.077,northwest,2.0,No
2022/10/20,04:00,0.149,0.135,0.217,0.210,0.211,0.119,0.076,northwest,2.4,No
2022/10/20,04:10,0.150,0.135,0.217,0.208,0.211,0.118,0.077,northwest,1.8,No
2022/10/20,04:20,0.150,0.134,0.217,0.210,0.212,0.118,0.076,northwest,1.8,No
2022/10/20,04:30,0.148,0.135,0.218,0.209,0.212,0.119,0.076,northwest,2.3,No
2022/10/20,04:40,0.150,0.135,0.218,0.209,0.212,0.118,0.077,northwest,2.6,No
2022/10/20,04:50,0.150,0.136,0.218,0.208,0.211,0.119,0.076,northwest,3.2,No
2022/10/20,05:00,0.149,0.136,0.216,0.208,0.211,0.119,0.076,northwest,2.3,No
2022/10/20,05:10,0.149,0.134,0.217,0.210,0.211,0.119,0.077,northwest,3.0,No
2022/10/20,05:20,0.151,0.135,0.218,0.209,0.212,0.119,0.076,northwest,4.9,No
2022/10/20,05:30,0.150,0.136,0.218,0.209,0.211,0.118,0.076,northwest,6.1,No
2022/10/20,05:40,0.149,0.134,0.218,0.209,0.212,0.119,0.076,northwest,7.0,No
2022/10/20,05:50,0.150,0.135,0.217,0.210,0.212,0.119,0.076,northwest,6.8,No
2022/10/20,06:00,0.150,0.135,0.217,0.209,0.211,0.119,0.076,northwest,6.5,No
2022/10/20,06:10,0.149,0.136,0.218,0.208,0.212,0.119,0.076,northwest,6.3,No
2022/10/20,06:20,0.150,0.134,0.216,0.209,0.213,0.119,0.076,northwest,6.5,No
2022/10/20,06:30,0.150,0.136,0.216,0.210,0.211,0.118,0.077,west-northwest,5.4,No
2022/10/20,06:40,0.149,0.136,0.218,0.208,0.212,0.119,0.077,northwest,6.1,No
2022/10/20,06:50,0.150,0.135,0.216,0.209,0.212,0.119,0.077,northwest,4.5,No
2022/10/20,07:00,0.150,0.135,0.217,0.209,0.213,0.119,0.077,northwest,2.9,No
2022/10/20,07:10,0.150,0.135,0.218,0.209,0.212,0.119,0.076,northwest,3.9,No
2022/10/20,07:20,0.150,0.135,0.216,0.208,0.211,0.119,0.077,northwest,5.0,No
2022/10/20,07:30,0.149,0.135,0.216,0.209,0.210,0.119,0.075,northwest,5.3,No
2022/10/20,07:40,0.150,0.135,0.217,0.208,0.213,0.119,0.076,northwest,5.5,No
2022/10/20,07:50,0.150,0.135,0.217,0.209,0.213,0.118,0.076,northwest,5.0,No
2022/10/20,08:00,0.150,0.136,0.219,0.207,0.212,0.119,0.076,northwest,4.5,No
2022/10/20,08:10,0.150,0.134,0.217,0.209,0.213,0.119,0.076,northwest,4.5,No
2022/10/20,08:20,0.151,0.135,0.217,0.208,0.212,0.119,0.076,northwest,3.4,No
2022/10/20,08:30,0.149,0.135,0.217,0.209,0.213,0.120,0.077,northwest,3.0,No
2022/10/20,08:40,0.151,0.136,0.216,0.209,0.211,0.119,0.076,northwest,1.8,No
2022/10/20,08:50,0.149,0.135,0.216,0.209,0.213,0.119,0.076,northwest,2.6,No
2022/10/20,09:00,0.150,0.135,0.217,0.208,0.211,0.118,0.077,west-northwest,2.2,No
2022/10/20,09:10,0.149,0.135,0.216,0.209,0.214,0.118,0.076,northwest,4.0,No
2022/10/20,09:20,0.151,0.135,0.216,0.208,0.210,0.119,0.076,northwest,3.4,No
2022/10/20,09:30,0.149,0.134,0.216,0.209,0.211,0.118,0.077,northwest,3.9,No
2022/10/20,09:40,0.150,0.135,0.217,0.209,0.213,0.119,0.075,northwest,6.3,No
2022/10/20,09:50,0.150,0.135,0.217,0.206,0.210,0.119,0.076,northwest,4.6,No
2022/10/20,10:00,0.148,0.135,0.218,0.209,0.211,0.118,0.077,northwest,3.8,No
2022/10/20,10:10,0.150,0.135,0.216,0.208,0.213,0.119,0.077,northwest,4.6,No
2022/10/20,10:20,0.149,0.135,0.218,0.208,0.210,0.118,0.077,west-northwest,4.4,No
2022/10/20,10:30,0.150,0.135,0.217,0.211,0.214,0.119,0.077,northwest,3.3,No
2022/10/20,10:40,0.149,0.135,0.216,0.208,0.211,0.119,0.076,northwest,3.3,No
2022/10/20,10:50,0.148,0.136,0.218,0.206,0.210,0.118,0.076,northwest,4.2,No
2022/10/20,11:00,0.150,0.135,0.216,0.209,0.210,0.119,0.076,west-northwest,4.1,No
2022/10/20,11:10,0.150,0.134,0.214,0.209,0.213,0.119,0.077,west-northwest,4.1,No
2022/10/20,11:20,0.149,0.135,0.216,0.207,0.211,0.119,0.078,west-northwest,2.3,No
2022/10/20,11:30,0.149,0.134,0.219,0.209,0.212,0.119,0.077,west,0.9,No
2022/10/20,11:40,0.150,0.135,0.217,0.210,0.213,0.119,0.075,west,1.1,No
2022/10/20,11:50,0.149,0.135,0.219,0.208,0.211,0.119,0.077,south-southeast,1.7,No
2022/10/20,12:00,0.151,0.135,0.217,0.211,0.212,0.119,0.076,southeast,1.5,No
2022/10/20,12:10,0.151,0.136,0.217,0.209,0.214,0.120,0.077,southeast,2.3,No
2022/10/20,12:20,0.148,0.136,0.219,0.209,0.211,0.119,0.077,southeast,4.0,No
2022/10/20,12:30,0.148,0.134,0.216,0.209,0.211,0.118,0.076,southeast,4.3,No
2022/10/20,12:40,0.150,0.135,0.215,0.208,0.213,0.120,0.077,south-southeast,3.2,No
2022/10/20,12:50,0.150,0.135,0.218,0.208,0.211,0.119,0.077,south-southeast,2.6,No
2022/10/20,13:00,0.148,0.135,0.217,0.210,0.211,0.120,0.076,south-southwest,1.8,No
2022/10/20,13:10,0.148,0.136,0.216,0.208,0.214,0.119,0.077,south-southwest,1.8,No
2022/10/20,13:20,0.150,0.135,0.215,0.206,0.212,0.118,0.077,east-southeast,1.5,No
2022/10/20,13:30,0.150,0.135,0.218,0.209,0.211,0.119,0.077,east-southeast,2.3,No
2022/10/20,13:40,0.148,0.134,0.217,0.209,0.210,0.119,0.076,southeast,2.2,No
2022/10/20,13:50,0.148,0.137,0.217,0.208,0.213,0.119,0.077,south-southeast,1.0,No
2022/10/20,14:00,0.150,0.134,0.218,0.210,0.213,0.119,0.076,west-northwest,1.0,No
2022/10/20,14:10,0.149,0.136,0.217,0.208,0.211,0.120,0.077,northwest,1.5,No
2022/10/20,14:20,0.149,0.135,0.218,0.209,0.213,0.118,0.077,west-northwest,2.3,No
2022/10/20,14:30,0.151,0.136,0.217,0.210,0.211,0.119,0.077,northwest,3.3,No
2022/10/20,14:40,0.149,0.136,0.218,0.208,0.211,0.119,0.077,west-northwest,3.2,No
2022/10/20,14:50,0.149,0.134,0.217,0.211,0.214,0.119,0.076,west-northwest,2.5,No
2022/10/20,15:00,0.151,0.136,0.218,0.209,0.211,0.118,0.077,west-northwest,2.9,No
2022/10/20,15:10,0.149,0.135,0.217,0.211,0.214,0.118,0.077,west-northwest,1.6,No
2022/10/20,15:20,0.151,0.135,0.219,0.209,0.212,0.119,0.077,west-northwest,1.5,No
2022/10/20,15:30,0.151,0.135,0.219,0.210,0.212,0.119,0.077,west-northwest,1.3,No
2022/10/20,15:40,0.150,0.136,0.219,0.210,0.213,0.119,0.077,northwest,1.5,No
2022/10/20,15:50,0.150,0.135,0.218,0.210,0.212,0.119,0.076,west-northwest,1.0,No
2022/10/20,16:00,0.151,0.135,0.219,0.209,0.214,0.120,0.077,-,CALM,No
2022/10/20,16:10,0.151,0.136,0.216,0.210,0.212,0.120,0.076,-,CALM,No
2022/10/20,16:20,0.150,0.135,0.219,0.209,0.213,0.119,0.076,north-northwest,1.0,No
2022/10/20,16:30,0.150,0.135,0.218,0.211,0.212,0.119,0.076,-,CALM,No
2022/10/20,16:40,0.150,0.135,0.219,0.209,0.214,0.118,0.077,-,CALM,No
2022/10/20,16:50,0.150,0.136,0.218,0.210,0.212,0.119,0.077,-,CALM,No
2022/10/20,17:00,0.151,0.137,0.217,0.211,0.214,0.120,0.077,west-northwest,1.7,No
2022/10/20,17:10,0.150,0.135,0.219,0.209,0.213,0.119,0.077,west-northwest,4.4,No
2022/10/20,17:20,0.152,0.136,0.218,0.211,0.213,0.119,0.077,west-northwest,4.3,No
2022/10/20,17:30,0.151,0.135,0.219,0.208,0.213,0.120,0.076,west-northwest,5.3,No
2022/10/20,17:40,0.150,0.136,0.219,0.209,0.212,0.118,0.077,west,4.6,No
2022/10/20,17:50,0.150,0.135,0.218,0.210,0.214,0.119,0.076,west,4.5,No
2022/10/20,18:00,0.150,0.136,0.219,0.210,0.212,0.119,0.077,west,4.2,No
2022/10/20,18:10,0.150,0.136,0.217,0.210,0.214,0.121,0.076,west,5.6,No
2022/10/20,18:20,0.150,0.135,0.217,0.210,0.212,0.120,0.076,west,6.2,No
2022/10/20,18:30,0.151,0.135,0.218,0.210,0.212,0.119,0.077,west,6.3,No
2022/10/20,18:40,0.150,0.135,0.218,0.210,0.213,0.118,0.077,west,7.6,No
2022/10/20,18:50,0.151,0.136,0.218,0.209,0.213,0.119,0.077,west,8.5,No
2022/10/20,19:00,0.151,0.135,0.218,0.210,0.214,0.118,0.076,west,9.8,No
2022/10/20,19:10,0.149,0.135,0.218,0.211,0.212,0.120,0.076,west,10.4,No
2022/10/20,19:20,0.151,0.136,0.217,0.210,0.212,0.119,0.076,west-northwest,10.7,No
2022/10/20,19:30,0.149,0.135,0.219,0.209,0.213,0.120,0.076,west-northwest,10.7,No
2022/10/20,19:40,0.150,0.136,0.218,0.209,0.212,0.119,0.076,west,11.1,No
2022/10/20,19:50,0.150,0.136,0.218,0.209,0.213,0.119,0.077,west,9.8,No
2022/10/20,20:00,0.149,0.135,0.218,0.211,0.212,0.119,0.077,west,9.5,No
2022/10/20,20:10,0.152,0.135,0.218,0.210,0.214,0.119,0.076,west,9.5,No
2022/10/20,20:20,0.150,0.135,0.217,0.210,0.213,0.119,0.077,west,7.2,No
2022/10/20,20:30,0.150,0.136,0.218,0.209,0.211,0.119,0.077,west,8.2,No
2022/10/20,20:40,0.148,0.135,0.218,0.209,0.214,0.119,0.077,west,5.4,No
2022/10/20,20:50,0.150,0.135,0.218,0.210,0.211,0.119,0.077,west,5.6,No
2022/10/20,21:00,0.150,0.136,0.218,0.209,0.214,0.119,0.077,west-northwest,4.0,No
2022/10/20,21:10,0.150,0.135,0.216,0.210,0.212,0.119,0.076,west,5.4,No
2022/10/20,21:20,0.150,0.136,0.219,0.210,0.213,0.119,0.076,west,6.0,No
2022/10/20,21:30,0.149,0.136,0.218,0.209,0.213,0.119,0.076,west,5.4,No
2022/10/20,21:40,0.150,0.135,0.217,0.211,0.213,0.119,0.076,west,4.2,No
2022/10/20,21:50,0.150,0.135,0.218,0.210,0.213,0.120,0.077,west,4.6,No
2022/10/20,22:00,0.149,0.135,0.218,0.209,0.211,0.119,0.076,west,5.9,No
2022/10/20,22:10,0.150,0.135,0.219,0.210,0.214,0.120,0.076,west,5.5,No
2022/10/20,22:20,0.150,0.136,0.219,0.210,0.213,0.119,0.076,west-northwest,5.5,No
2022/10/20,22:30,0.151,0.135,0.217,0.210,0.211,0.119,0.076,west,5.9,No
2022/10/20,22:40,0.151,0.136,0.217,0.209,0.213,0.120,0.077,west-northwest,6.3,No
2022/10/20,22:50,0.150,0.136,0.219,0.209,0.212,0.119,0.076,west,6.6,No
2022/10/20,23:00,0.150,0.137,0.219,0.211,0.212,0.118,0.076,west-northwest,5.9,No
2022/10/20,23:10,0.150,0.135,0.218,0.210,0.213,0.120,0.077,west-northwest,5.2,No
2022/10/20,23:20,0.150,0.135,0.218,0.210,0.211,0.119,0.077,west,5.5,No
2022/10/20,23:30,0.150,0.136,0.217,0.210,0.213,0.120,0.076,west,5.9,No
2022/10/20,23:40,0.149,0.135,0.218,0.209,0.214,0.119,0.077,west,5.9,No
2022/10/20,23:50,0.150,0.136,0.219,0.210,0.213,0.120,0.076,west,6.3,No
